Change the Weather History Date:

Saturday, December 22, 2012

  Actual Average Record
Temperature  
Mean Temperature 59 °F 56 °F  
Max Temperature 75 °F 67 °F 85 °F (1970)
Min Temperature 42 °F 46 °F 18 °F (1973)
Degree Days  
Heating Degree Days 6 10  
Month to date heating degree days 74 185  
Since 1 July heating degree days 122 300  
Cooling Degree Days 0 1  
Month to date cooling degree days 106 26  
Year to date cooling degree days 5173 4281  
Growing Degree Days 8 (Base 50)    
Moisture  
Dew Point 43 °F    
Average Humidity 58    
Maximum Humidity 78    
Minimum Humidity 43    
Precipitation  
Precipitation 0.00 in 0.03 in 0.45 in (1937)
Month to date precipitation 0.02 0.59  
Year to date precipitation 9.36 19.91  
Sea Level Pressure  
Sea Level Pressure 30.21 in    
Wind  
Wind Speed 7 mph (SE)    
Max Wind Speed 21 mph    
Max Gust Speed 24 mph    
Visibility 10 miles    
Events      
T = Trace of Precipitation, MM = Missing Value Source: NWS Daily Summary

Daily Weather History Graph

Daily Weather History Graph

Search for Another Location

Airport or City:

Trip Planner

Search our weather history database for the weather conditions in past years. The results will help you decide how hot, cold, wet, or windy it might be!

Date:

Astronomy

Dec. 22, 2012 Rise Set
Actual Time 7:24 AM CST 5:48 PM CST
Civil Twilight 6:59 AM CST 6:14 PM CST
Nautical Twilight 6:29 AM CST 6:43 PM CST
Astronomical Twilight 6:01 AM CST 7:12 PM CST
Moon 1:53 PM CST (12/22) 2:27 AM CST (12/22)
Length of Visible Light 11h 15m
Length of Day
10h 24m
Waxing Gibbous, 74% of the Moon is Illuminated
Dec 22
Waxing Gibbous
Dec 28
Full
Jan 4
Last Quarter
Jan 11
New
Jan 18
First Quarter

Hourly Weather History & Observations

Time (CST) Temp. Windchill Dew Point Humidity Pressure Visibility Wind Dir Wind Speed Gust Speed Precip Events Conditions
12:56 AM 46.9 °F - 29.1 °F 50% 30.34 in 10.0 mi ENE 4.6 mph - N/A   Clear
1:56 AM 45.9 °F 41.7 °F 29.1 °F 52% 30.33 in 10.0 mi ENE 8.1 mph - N/A   Clear
2:56 AM 45.0 °F 41.2 °F 29.1 °F 54% 30.31 in 10.0 mi ENE 6.9 mph - N/A   Unknown
3:56 AM 43.9 °F 39.9 °F 27.1 °F 52% 30.29 in 10.0 mi ENE 6.9 mph - N/A   Clear
4:56 AM 43.0 °F 39.5 °F 29.1 °F 58% 30.29 in 10.0 mi East 5.8 mph - N/A   Clear
5:56 AM 43.9 °F 40.5 °F 30.0 °F 58% 30.30 in 10.0 mi West 5.8 mph - N/A   Scattered Clouds
6:56 AM 43.0 °F - 32.0 °F 65% 30.30 in 10.0 mi Calm Calm - N/A   Partly Cloudy
7:56 AM 43.9 °F - 30.0 °F 58% 30.31 in 10.0 mi Calm Calm - N/A   Partly Cloudy
8:56 AM 47.8 °F - 32.9 °F 56% 30.32 in 10.0 mi NNW 3.5 mph - N/A   Mostly Cloudy
9:56 AM 52.9 °F - 38.8 °F 59% 30.32 in 10.0 mi Calm Calm - N/A   Overcast
10:56 AM 56.8 °F - 41.9 °F 57% 30.32 in 10.0 mi Calm Calm - N/A   Overcast
11:56 AM 61.9 °F - 43.9 °F 52% 30.27 in 10.0 mi Variable 3.5 mph - N/A   Mostly Cloudy
12:56 PM 66.9 °F - 45.9 °F 47% 30.20 in 10.0 mi South 6.9 mph - N/A   Mostly Cloudy
1:56 PM 70.0 °F - 50.0 °F 49% 30.17 in 10.0 mi SSE 11.5 mph - N/A   Mostly Cloudy
2:56 PM 73.9 °F - 52.0 °F 46% 30.13 in 10.0 mi South 16.1 mph 24.2 mph N/A   Clear
3:56 PM 74.8 °F - 52.0 °F 45% 30.11 in 10.0 mi South 15.0 mph - N/A   Clear
4:56 PM 72.9 °F - 52.9 °F 49% 30.11 in 10.0 mi South 12.7 mph - N/A   Scattered Clouds
5:56 PM 70.9 °F - 52.9 °F 53% 30.10 in 10.0 mi SSE 9.2 mph - N/A   Mostly Cloudy
6:56 PM 68.9 °F - 54.9 °F 61% 30.11 in 10.0 mi SSE 9.2 mph - N/A   Scattered Clouds
7:56 PM 66.9 °F - 54.9 °F 65% 30.10 in 10.0 mi SE 9.2 mph - N/A   Clear
8:56 PM 64.9 °F - 54.9 °F 70% 30.09 in 10.0 mi SE 6.9 mph - N/A   Clear
9:56 PM 63.9 °F - 55.9 °F 75% 30.08 in 10.0 mi SE 10.4 mph - N/A   Clear
10:56 PM 63.9 °F - 56.8 °F 78% 30.09 in 10.0 mi SSE 10.4 mph - N/A   Clear
11:56 PM 61.9 °F - 55.9 °F 81% 30.08 in 10.0 mi SE 5.8 mph - N/A   Clear